[[{"header":{"parameterUnit":"m.s-1","parameterCategory":1,"la1":30.2991,"la2":30.254,"lo1":-89.0895,"lo2":-89.0444,"dy":0.0017,"dx":0.0017,"nx":28,"ny":28,"refTime":"2025-11-23T03:00:00:Z","depth":0,"parameterNumber":2,"parameterNumberName":"U-component_of_WINDS"},"data":[0,0,0,0,0,0,0,0,0,0,0,0,0,0,0,0,0,0,0,0,0,0,0,0,0,0,0,0,0,0,0,0,0,0,0,0,0,0,0,0,0,0,0,0,0,0,0,0,0,0,0,0,0,0,0,0,0,0,-1.5804,-1.5804,0,-1.5747,-1.5746,-1.5745,-1.5635,-1.5633,-1.5631,-1.5629,-1.5572,-1.5573,-1.5573,0,0,0,0,0,0,0,0,0,0,0,0,0,-1.5821,-1.5821,-1.5804,-1.5804,-1.5803,-1.5747,-1.5746,-1.5745,-1.5636,-1.5633,-1.563,-1.5628,-1.5572,-1.5573,-1.5574,0,0,0,0,0,0,0,0,0,0,0,0,0,-1.5794,-1.5821,-1.5805,-1.5741,-1.5735,-1.5747,-1.5746,-1.5745,-1.5636,-1.5633,-1.563,-1.5627,-1.5572,-1.5573,-1.5574,-1.5643,0,0,-1.5576,-1.5576,0,0,0,0,0,0,0,0,-1.5795,-1.5793,-1.5751,-1.5746,-1.5739,-1.5695,-1.5731,-1.5711,-1.5637,-1.5674,-1.5629,-1.5625,-1.5616,-1.5613,-1.5609,-1.5641,-1.5638,-1.5576,-1.5576,-1.5577,-1.5577,0,0,0,0,0,0,0,-1.5797,-1.5795,-1.5782,-1.5751,-1.5743,-1.5716,-1.5709,-1.5727,-1.5664,-1.567,-1.5662,-1.5657,-1.5612,-1.5609,-1.5607,-1.5637,-1.5576,-1.5577,-1.5577,-1.5577,-1.5721,-1.5724,0,0,0,0,0,0,-1.5808,-1.5797,-1.5783,-1.578,-1.5759,-1.5719,-1.571,-1.5712,-1.5663,-1.5653,-1.566,-1.5652,-1.5609,-1.5606,-1.5605,-1.5682,-1.5577,-1.5578,-1.5578,-1.5718,-1.5722,-1.5725,0,0,0,0,0,0,-1.5809,-1.5808,-1.5786,-1.5786,-1.5781,-1.5722,-1.5725,-1.5713,-1.5709,-1.5655,-1.5644,-1.5668,-1.5606,-1.5604,-1.5634,-1.5678,-1.5578,-1.5579,-1.5714,-1.5719,-1.5724,-1.5837,0,0,0,0,0,0,-1.581,-1.5809,-1.5834,-1.5788,-1.5782,-1.5816,-1.5728,-1.5714,-1.5711,-1.57,-1.566,-1.565,-1.5604,-1.5633,-1.5635,-1.5677,-1.5579,-1.5709,-1.5716,-1.5722,-1.5829,-1.5845,-1.5859,0,0,0,0,0,-1.5811,-1.587,-1.5836,-1.5835,-1.5813,-1.5819,-1.5815,-1.576,-1.5715,-1.574,-1.5705,-1.5651,-1.5673,-1.5637,-1.5638,-1.5682,-1.5706,-1.5714,-1.5721,-1.5822,-1.5842,-1.5859,0,0,0,0,0,0,-1.5925,-1.5863,-1.5825,-1.587,-1.585,-1.58,-1.583,-1.5783,-1.5776,-1.5767,-1.5699,-1.5691,-1.573,-1.5709,-1.567,-1.5746,-1.5681,-1.5689,-1.5758,-1.5776,-1.5791,-1.5795,-1.558,0,0,0,0,0,-1.5955,-1.5964,-1.591,-1.5955,-1.5947,-1.5891,-1.5891,-1.585,-1.5827,-1.5819,-1.5786,-1.5766,-1.5768,-1.5771,-1.577,-1.5826,-1.5815,-1.5856,-1.5871,-1.5884,-1.5891,-1.5918,-1.5935,-1.575,-1.575,-1.575,0,0,-1.6018,-1.5985,-1.5995,-1.5977,-1.5957,-1.5969,-1.5885,-1.5901,-1.5908,-1.5821,-1.5847,-1.5823,-1.5796,-1.5839,-1.5856,-1.5822,-1.594,-1.5893,-1.5904,-1.5904,-1.5927,-1.5945,-1.596,-1.5755,-1.5754,-1.5753,0,0,-1.6138,-1.6115,-1.6149,-1.613,-1.61,-1.6062,-1.607,-1.6027,-1.6006,-1.6031,-1.5965,-1.5974,-1.598,-1.5963,-1.5955,-1.6068,-1.6018,-1.6069,-1.6148,-1.6175,-1.6189,-1.6202,-1.6241,-1.6256,-1.6077,-1.6078,-1.6078,0,-1.622,-1.6234,-1.6173,-1.6193,-1.6186,-1.6107,-1.6141,-1.6126,-1.6098,-1.6095,-1.6058,-1.6062,-1.6038,-1.6075,-1.6103,-1.61,-1.6107,-1.6073,-1.6192,-1.6204,-1.6215,-1.6251,-1.6266,-1.6084,-1.6083,-1.6083,-1.6082,0,-1.6336,-1.6347,-1.6379,-1.6352,-1.6349,-1.6376,-1.6319,-1.6324,-1.6283,-1.6249,-1.6274,-1.6243,-1.6234,-1.624,-1.6201,-1.6271,-1.6251,-1.6204,-1.6138,-1.624,-1.6273,-1.6286,-1.6093,-1.6091,-1.6089,-1.6087,0,0,-1.6527,-1.6465,-1.6477,-1.6463,-1.6424,-1.6431,-1.6454,-1.6444,-1.6449,-1.6432,-1.6449,-1.6455,-1.6411,-1.6402,-1.636,-1.6384,-1.6473,-1.6333,-1.6331,-1.6359,-1.6547,-1.6582,-1.6599,-1.644,-1.6442,-1.6444,-1.6549,0,-1.6638,-1.6673,-1.6618,-1.6666,-1.6674,-1.6598,-1.6618,-1.6597,-1.6565,-1.6568,-1.6534,-1.6538,-1.648,-1.6474,-1.6494,-1.6458,-1.651,-1.645,-1.6455,-1.6456,-1.6463,-1.6617,-1.6654,-1.6754,-1.6562,-1.6564,-1.6565,0,-1.6772,-1.676,-1.6808,-1.6764,-1.6766,-1.6785,-1.677,-1.6774,-1.6747,-1.6723,-1.6713,-1.6662,-1.6682,-1.6618,-1.6644,-1.6604,-1.6603,-1.6586,-1.6589,-1.6586,-1.6517,-1.6618,-1.6785,-1.68,-1.6585,-1.6584,-1.6582,0,-1.6904,-1.6901,-1.6928,-1.6919,-1.6869,-1.6884,-1.6864,-1.6834,-1.683,-1.6818,-1.6815,-1.6806,-1.6801,-1.6795,-1.6743,-1.6702,-1.6775,-1.6707,-1.6754,-1.6756,-1.6773,-1.6772,-1.6941,-1.6774,-1.6774,-1.6773,-1.6773,0,-1.7033,-1.7066,-1.6987,-1.7005,-1.7038,-1.6975,-1.701,-1.6982,-1.6956,-1.6967,-1.6901,-1.6912,-1.6844,-1.6848,-1.6808,-1.6834,-1.6833,-1.6813,-1.6802,-1.6819,-1.6821,-1.6816,-1.6808,-1.6777,-1.6777,-1.6776,-1.6775,0,-1.7187,-1.7136,-1.7161,-1.7111,-1.7099,-1.7126,-1.7083,-1.7097,-1.7061,-1.7075,-1.7074,-1.7018,-1.7019,-1.6967,-1.6958,-1.6931,-1.6975,-1.6952,-1.6984,-1.6976,-1.7025,-1.7021,-1.7197,-1.7216,-1.7038,-1.704,-1.7041,0,-1.7272,-1.7295,-1.7247,-1.7248,-1.7231,-1.7235,-1.7231,-1.7169,-1.7168,-1.7138,-1.7156,-1.7151,-1.7144,-1.7149,-1.7108,-1.71,-1.7076,-1.7138,-1.7074,-1.7089,-1.7075,-1.7074,-1.7075,-1.7151,-1.7153,-1.7155,-1.7157,0,-1.7428,-1.7401,-1.7398,-1.7385,-1.7382,-1.7369,-1.7352,-1.7357,-1.729,-1.7292,-1.7291,-1.7286,-1.7275,-1.7271,-1.7256,-1.7235,-1.7185,-1.7177,-1.7187,-1.7204,-1.7221,-1.7211,-1.7019,-1.7173,-1.7172,-1.717,-1.7169,-1.7169,-1.7549,-1.7565,-1.7533,-1.7531,-1.7511,-1.7497,-1.7507,-1.7471,-1.747,-1.7456,-1.742,-1.7425,-1.7397,-1.737,-1.7354,-1.7357,-1.7326,-1.7341,-1.7345,-1.7349,-1.7358,-1.7221,-1.7354,-1.7354,-1.7353,-1.7353,-1.7352,0,-1.7701,-1.7676,-1.7674,-1.7652,-1.765,-1.7602,-1.758,-1.7582,-1.7587,-1.7565,-1.7558,-1.7558,-1.7553,-1.7511,-1.7501,-1.7512,-1.7489,-1.7511,-1.751,-1.7505,-1.7387,-1.7379,-1.753,-1.753,-1.753,-1.753,-1.753,-1.753,-1.7779,-1.7803,-1.7773,-1.7786,-1.7761,-1.7765,-1.7757,-1.7743,-1.7724,-1.7725,-1.7721,-1.7693,-1.7662,-1.765,-1.7643,-1.7631,-1.763,-1.7661,-1.7641,-1.7531,-1.7514,-1.7497,-1.7489,-1.7661,-1.7662,-1.7758,-1.7759,-1.776]},{"header":{"parameterUnit":"m.s-1","parameterCategory":1,"la1":30.2991,"la2":30.254,"lo1":-89.0895,"lo2":-89.0444,"dy":0.0017,"dx":0.0017,"nx":28,"ny":28,"refTime":"2025-11-23T03:00:00:Z","depth":0,"parameterNumber":3,"parameterNumberName":"V-component_of_WINDS"},"data":[0,0,0,0,0,0,0,0,0,0,0,0,0,0,0,0,0,0,0,0,0,0,0,0,0,0,0,0,0,0,0,0,0,0,0,0,0,0,0,0,0,0,0,0,0,0,0,0,0,0,0,0,0,0,0,0,0,0,-3.01,-3.01,0,-3.0097,-3.0097,-3.0097,-3.0053,-3.0052,-3.005,-3.0049,-3.0046,-3.0047,-3.0048,0,0,0,0,0,0,0,0,0,0,0,0,0,-3.0068,-3.0069,-3.01,-3.01,-3.01,-3.0097,-3.0097,-3.0097,-3.0053,-3.0052,-3.005,-3.0049,-3.0046,-3.0047,-3.0048,0,0,0,0,0,0,0,0,0,0,0,0,0,-3.0075,-3.0069,-3.01,-3.0078,-3.0076,-3.0097,-3.0097,-3.0097,-3.0053,-3.0051,-3.005,-3.0048,-3.0045,-3.0047,-3.0048,-3.009,0,0,-3.0052,-3.0053,0,0,0,0,0,0,0,0,-3.0075,-3.0076,-3.0081,-3.008,-3.0077,-3.0073,-3.0084,-3.0095,-3.0054,-3.0062,-3.0049,-3.0047,-3.0056,-3.0057,-3.006,-3.009,-3.009,-3.0052,-3.0053,-3.0054,-3.0054,0,0,0,0,0,0,0,-3.0074,-3.0076,-3.0099,-3.0081,-3.0079,-3.0068,-3.0067,-3.0086,-3.0069,-3.0061,-3.0058,-3.0058,-3.0055,-3.0059,-3.0059,-3.009,-3.0052,-3.0054,-3.0055,-3.0055,-3.0153,-3.0154,0,0,0,0,0,0,-3.0077,-3.0076,-3.0099,-3.0099,-3.0072,-3.007,-3.0069,-3.0076,-3.0068,-3.0065,-3.0059,-3.0056,-3.0057,-3.0058,-3.0059,-3.0106,-3.0054,-3.0055,-3.0056,-3.0151,-3.0153,-3.0155,0,0,0,0,0,0,-3.0077,-3.008,-3.0099,-3.0087,-3.0088,-3.0072,-3.0081,-3.0077,-3.0081,-3.0067,-3.0064,-3.0066,-3.0056,-3.0057,-3.0082,-3.0106,-3.0056,-3.0057,-3.0149,-3.0151,-3.0154,-3.0202,0,0,0,0,0,0,-3.0076,-3.008,-3.0096,-3.0087,-3.0089,-3.0123,-3.0082,-3.0078,-3.0083,-3.0079,-3.0073,-3.007,-3.0054,-3.008,-3.0084,-3.0107,-3.0058,-3.0147,-3.015,-3.0153,-3.0199,-3.0206,-3.0213,0,0,0,0,0,-3.0075,-3.011,-3.0097,-3.01,-3.0109,-3.0124,-3.0125,-3.0107,-3.0085,-3.0101,-3.0092,-3.007,-3.0103,-3.0083,-3.0087,-3.0111,-3.0145,-3.0149,-3.0153,-3.0195,-3.0205,-3.0213,0,0,0,0,0,0,-3.0122,-3.0108,-3.0094,-3.0127,-3.0127,-3.0117,-3.0136,-3.0118,-3.0124,-3.0119,-3.0096,-3.0095,-3.0123,-3.012,-3.0098,-3.015,-3.012,-3.0125,-3.0151,-3.016,-3.0167,-3.0167,-3.0059,0,0,0,0,0,-3.0136,-3.015,-3.0137,-3.0168,-3.0169,-3.0153,-3.0159,-3.0144,-3.0143,-3.0143,-3.0136,-3.0136,-3.0146,-3.0153,-3.0162,-3.0198,-3.0195,-3.0216,-3.0223,-3.0229,-3.0233,-3.0251,-3.0259,-3.0168,-3.0168,-3.0168,0,0,-3.0166,-3.016,-3.017,-3.0177,-3.0176,-3.019,-3.0153,-3.017,-3.018,-3.0146,-3.0168,-3.0164,-3.0162,-3.0192,-3.0205,-3.019,-3.0258,-3.0234,-3.0239,-3.024,-3.0256,-3.0264,-3.0272,-3.017,-3.017,-3.0169,0,0,-3.0226,-3.0224,-3.0248,-3.0247,-3.0245,-3.0234,-3.024,-3.0232,-3.0227,-3.025,-3.0224,-3.0236,-3.0254,-3.0253,-3.0255,-3.0315,-3.0294,-3.0319,-3.0356,-3.0373,-3.038,-3.0386,-3.0406,-3.0413,-3.0323,-3.0323,-3.0323,0,-3.0263,-3.0283,-3.0264,-3.0282,-3.0285,-3.0255,-3.0278,-3.0279,-3.0279,-3.0282,-3.0265,-3.0286,-3.0283,-3.0312,-3.0327,-3.033,-3.0335,-3.0319,-3.0381,-3.0387,-3.0392,-3.0411,-3.0418,-3.0326,-3.0326,-3.0325,-3.0325,0,-3.0328,-3.0343,-3.0363,-3.0363,-3.0369,-3.039,-3.0373,-3.0381,-3.0366,-3.0357,-3.038,-3.0375,-3.0381,-3.0388,-3.0374,-3.0414,-3.0405,-3.0385,-3.0354,-3.0404,-3.0421,-3.0428,-3.033,-3.0329,-3.0328,-3.0327,0,0,-3.0418,-3.0407,-3.0414,-3.0413,-3.0408,-3.0419,-3.0439,-3.0444,-3.0451,-3.0453,-3.0468,-3.0484,-3.0464,-3.0467,-3.0453,-3.0468,-3.0513,-3.0446,-3.0445,-3.0457,-3.0556,-3.057,-3.0579,-3.05,-3.0502,-3.0503,-3.0556,0,-3.0475,-3.0507,-3.0489,-3.0523,-3.0535,-3.0507,-3.0523,-3.0522,-3.0514,-3.0523,-3.0514,-3.0524,-3.0499,-3.05,-3.0514,-3.0505,-3.0533,-3.0501,-3.0513,-3.0514,-3.0512,-3.0588,-3.0603,-3.0653,-3.0562,-3.0564,-3.0564,0,-3.0546,-3.0549,-3.0585,-3.0576,-3.058,-3.0596,-3.0599,-3.0608,-3.0605,-3.0598,-3.0601,-3.0582,-3.06,-3.0571,-3.0594,-3.0573,-3.0577,-3.0573,-3.0575,-3.0574,-3.0541,-3.0587,-3.0669,-3.0676,-3.0575,-3.0574,-3.0573,0,-3.0605,-3.0619,-3.0642,-3.0642,-3.0633,-3.0644,-3.0641,-3.0637,-3.0641,-3.0644,-3.0646,-3.0652,-3.0654,-3.0659,-3.0642,-3.0623,-3.0667,-3.0637,-3.0661,-3.0661,-3.067,-3.067,-3.0752,-3.0676,-3.0676,-3.0676,-3.0676,0,-3.067,-3.0692,-3.0668,-3.0682,-3.0705,-3.0685,-3.0709,-3.0703,-3.0699,-3.071,-3.0687,-3.0698,-3.0676,-3.0685,-3.0673,-3.0693,-3.0695,-3.0689,-3.0685,-3.069,-3.0691,-3.0691,-3.0686,-3.0678,-3.0677,-3.0677,-3.0677,0,-3.074,-3.0725,-3.0747,-3.0736,-3.0734,-3.0752,-3.0742,-3.0754,-3.0744,-3.0759,-3.0761,-3.0746,-3.0755,-3.0739,-3.0747,-3.0738,-3.0766,-3.0758,-3.0767,-3.0764,-3.0788,-3.0785,-3.0872,-3.0881,-3.0801,-3.0802,-3.0803,0,-3.0781,-3.0797,-3.0788,-3.0794,-3.0791,-3.0801,-3.0805,-3.0786,-3.0791,-3.0788,-3.08,-3.0807,-3.0812,-3.0828,-3.0817,-3.0823,-3.0813,-3.0843,-3.0814,-3.0818,-3.0811,-3.081,-3.0811,-3.0849,-3.085,-3.085,-3.0851,0,-3.0855,-3.0847,-3.0853,-3.0857,-3.0862,-3.0864,-3.0864,-3.0871,-3.085,-3.0856,-3.0865,-3.0869,-3.0876,-3.0883,-3.0886,-3.0882,-3.0863,-3.0861,-3.0866,-3.0871,-3.0874,-3.0871,-3.0781,-3.0858,-3.0858,-3.0857,-3.0857,-3.0856,-3.0911,-3.0923,-3.0918,-3.0926,-3.0924,-3.0924,-3.0934,-3.0925,-3.0932,-3.0936,-3.0924,-3.0936,-3.0932,-3.0933,-3.0932,-3.094,-3.0926,-3.0935,-3.0937,-3.0939,-3.0942,-3.0875,-3.0941,-3.094,-3.094,-3.094,-3.094,0,-3.0982,-3.0977,-3.0985,-3.0985,-3.0991,-3.0973,-3.0972,-3.0978,-3.0988,-3.0986,-3.099,-3.1,-3.1006,-3.0996,-3.1001,-3.1009,-3.1,-3.1011,-3.1009,-3.1008,-3.0954,-3.0948,-3.1018,-3.1018,-3.1018,-3.1018,-3.1018,-3.1018,-3.102,-3.1039,-3.103,-3.1048,-3.1043,-3.1053,-3.1054,-3.1054,-3.1052,-3.1064,-3.1069,-3.1062,-3.1056,-3.106,-3.1065,-3.1062,-3.1064,-3.1077,-3.1071,-3.102,-3.1012,-3.1005,-3.0999,-3.1078,-3.1078,-3.1123,-3.1124,-3.1124]}]]